| time (UTC) | temp F | wind direction | speed knots | gust knots | rain 1hr in | rain 24hr in | rain mn in | humidity % | barometer mb |
| 20260502204038 | 81 | 238 | 4.3 | 7.8 | 0.00 | 0.00 | 0.00 | 50 | 1012.0 |
| 20260502203538 | 81 | 226 | 4.3 | 7.8 | 0.00 | 0.00 | 0.00 | 48 | 1012.0 |
| 20260502202810 | 80 | 248 | 4.3 | 8.7 | 0.00 | 0.00 | 0.00 | 50 | 1012.1 |
| 20260502202038 | 80 | 267 | 4.3 | 9.6 | 0.00 | 0.00 | 0.00 | 52 | 1012.2 |
| 20260502201540 | 79 | 265 | 4.3 | 9.6 | 0.00 | 0.00 | 0.00 | 53 | 1012.5 |
| 20260502201308 | 78 | 254 | 3.5 | 7.8 | 0.00 | 0.00 | 0.00 | 54 | 1012.6 |
| 20260502200538 | 78 | 229 | 3.5 | 7.8 | 0.00 | 0.00 | 0.00 | 54 | 1012.7 |
| 20260502200038 | 78 | 219 | 4.3 | 7.8 | 0.00 | 0.00 | 0.00 | 54 | 1012.8 |
| 20260502195538 | 78 | 229 | 3.5 | 7.8 | 0.00 | 0.00 | 0.00 | 54 | 1012.8 |
| 20260502195038 | 78 | 213 | 2.6 | 6.1 | 0.00 | 0.00 | 0.00 | 55 | 1012.9 |
| 20260502194539 | 77 | 209 | 3.5 | 8.7 | 0.00 | 0.00 | 0.00 | 55 | 1012.9 |
| 20260502194039 | 77 | 221 | 4.3 | 8.7 | 0.00 | 0.00 | 0.00 | 56 | 1013.1 |
| 20260502193038 | 76 | 221 | 3.5 | 6.1 | 0.00 | 0.00 | 0.00 | 57 | 1013.2 |
| 20260502192538 | 76 | 232 | 1.7 | 5.2 | 0.00 | 0.00 | 0.00 | 57 | 1013.2 |
| 20260502192309 | 76 | 237 | 1.7 | 5.2 | 0.00 | 0.00 | 0.00 | 60 | 1013.3 |
| 20260502191538 | 75 | 232 | 1.7 | 4.3 | 0.00 | 0.00 | 0.00 | 60 | 1013.2 |
| 20260502191039 | 74 | 232 | 1.7 | 4.3 | 0.00 | 0.00 | 0.00 | 60 | 1013.4 |
| 20260502190539 | 74 | 232 | 1.7 | 4.3 | 0.00 | 0.00 | 0.00 | 59 | 1013.6 |
| 20260502190309 | 74 | 230 | 1.7 | 4.3 | 0.00 | 0.00 | 0.00 | 61 | 1013.6 |
| 20260502185539 | 74 | 229 | 1.7 | 5.2 | 0.00 | 0.00 | 0.00 | 62 | 1013.7 |
| 20260502185309 | 73 | 229 | 2.6 | 6.1 | 0.00 | 0.00 | 0.00 | 62 | 1013.8 |
| 20260502184538 | 73 | 225 | 3.5 | 6.1 | 0.00 | 0.00 | 0.00 | 64 | 1013.8 |
| 20260502184038 | 72 | 228 | 2.6 | 5.2 | 0.00 | 0.00 | 0.00 | 66 | 1014.0 |
| 20260502183538 | 72 | 221 | 1.7 | 4.3 | 0.00 | 0.00 | 0.00 | 66 | 1014.1 |
| 20260502183038 | 71 | 221 | 2.6 | 6.1 | 0.00 | 0.00 | 0.00 | 68 | 1014.1 |
| 20260502182538 | 71 | 221 | 3.5 | 7.0 | 0.00 | 0.00 | 0.00 | 67 | 1014.3 |
| 20260502182039 | 70 | 216 | 2.6 | 7.0 | 0.00 | 0.00 | 0.00 | 69 | 1014.3 |
| 20260502181539 | 70 | 221 | 2.6 | 7.0 | 0.00 | 0.00 | 0.00 | 70 | 1014.4 |
| 20260502181039 | 69 | 241 | 2.6 | 5.2 | 0.00 | 0.00 | 0.00 | 70 | 1014.3 |
| 20260502180538 | 69 | 242 | 2.6 | 6.1 | 0.00 | 0.00 | 0.00 | 72 | 1014.3 |
| 20260502164301 | 64 | 240 | 0.9 | 4.3 | 0.00 | 0.00 | 0.00 | 85 | 1014.8 |
| 20260502163529 | 63 | 242 | 0.9 | 3.5 | 0.00 | 0.00 | 0.00 | 85 | 1014.8 |
| 20260502162525 | 62 | 242 | 0.9 | 2.6 | 0.00 | 0.00 | 0.00 | 84 | 1014.9 |
| 20260502162025 | 62 | 242 | 0.9 | 2.6 | 0.00 | 0.00 | 0.00 | 84 | 1014.9 |
| 20260502161524 | 61 | 242 | 0.9 | 3.5 | 0.00 | 0.00 | 0.00 | 84 | 1015.0 |
| 20260502161026 | 61 | 242 | 0.9 | 3.5 | 0.00 | 0.00 | 0.00 | 84 | 1015.0 |
| 20260502160755 | 61 | 242 | 0.0 | 3.5 | 0.00 | 0.00 | 0.00 | 83 | 1015.0 |
| 20260502152009 | 59 | 242 | 0.9 | 2.6 | 0.00 | 0.00 | 0.00 | 83 | 1015.3 |
| 20260502151506 | 59 | 242 | 0.9 | 2.6 | 0.00 | 0.00 | 0.00 | 83 | 1015.3 |
| 20260502151007 | 59 | 242 | 0.0 | 2.6 | 0.00 | 0.00 | 0.00 | 83 | 1015.2 |
| 20260502150505 | 58 | 242 | 0.0 | 2.6 | 0.00 | 0.00 | 0.00 | 84 | 1015.2 |
| 20260502123439 | 56 | 224 | 1.7 | 3.5 | 0.00 | 0.00 | 0.00 | 86 | 1013.9 |
| 20260502122938 | 56 | 224 | 1.7 | 3.5 | 0.00 | 0.00 | 0.00 | 86 | 1013.8 |
| 20260502122439 | 56 | 224 | 0.9 | 3.5 | 0.00 | 0.00 | 0.00 | 86 | 1013.7 |
| 20260502121937 | 56 | 224 | 0.0 | 2.6 | 0.00 | 0.00 | 0.00 | 86 | 1013.7 |
| 20260502121436 | 57 | 224 | 0.0 | 0.0 | 0.00 | 0.00 | 0.00 | 86 | 1013.6 |
| 20260502120937 | 57 | 224 | 0.0 | 0.0 | 0.00 | 0.00 | 0.00 | 86 | 1013.6 |
| 20260502120436 | 56 | 224 | 0.9 | 2.6 | 0.00 | 0.00 | 0.00 | 86 | 1013.5 |
| 20260502115436 | 57 | 224 | 0.9 | 2.6 | 0.00 | 0.00 | 0.00 | 86 | 1013.5 |
| 20260502114935 | 57 | 224 | 0.9 | 2.6 | 0.00 | 0.00 | 0.00 | 86 | 1013.5 |
| 20260502114704 | 57 | 224 | 0.9 | 2.6 | 0.00 | 0.00 | 0.00 | 86 | 1013.4 |
| 20260502114206 | 57 | 224 | 0.9 | 3.5 | 0.00 | 0.00 | 0.00 | 86 | 1013.4 |
| 20260502113434 | 57 | 224 | 0.9 | 3.5 | 0.00 | 0.00 | 0.00 | 86 | 1013.4 |
| 20260502112931 | 57 | 224 | 0.9 | 2.6 | 0.00 | 0.00 | 0.00 | 86 | 1013.4 |
| 20260502112429 | 57 | 224 | 0.9 | 3.5 | 0.00 | 0.00 | 0.00 | 86 | 1013.2 |
| 20260502112159 | 57 | 224 | 0.0 | 3.5 | 0.00 | 0.00 | 0.00 | 86 | 1013.2 |
| 20260502111429 | 57 | 224 | 0.0 | 0.0 | 0.00 | 0.00 | 0.00 | 86 | 1013.4 |
| 20260502111158 | 57 | 224 | 0.0 | 0.0 | 0.00 | 0.00 | 0.00 | 86 | 1013.4 |
| 20260502110425 | 57 | 224 | 0.0 | 0.0 | 0.00 | 0.00 | 0.00 | 86 | 1013.3 |
| 20260502105925 | 57 | 224 | 0.0 | 0.0 | 0.00 | 0.00 | 0.00 | 86 | 1013.2 |
| 20260502105422 | 57 | 224 | 0.0 | 0.0 | 0.00 | 0.00 | 0.00 | 86 | 1013.2 |
| 20260502104922 | 58 | 224 | 0.0 | 0.0 | 0.00 | 0.00 | 0.00 | 86 | 1013.3 |
| 20260502104423 | 57 | 224 | 0.0 | 0.0 | 0.00 | 0.00 | 0.00 | 86 | 1013.2 |
| 20260502103920 | 57 | 224 | 0.0 | 0.0 | 0.00 | 0.00 | 0.00 | 86 | 1013.2 |
| 20260502103420 | 57 | 224 | 0.0 | 0.0 | 0.00 | 0.00 | 0.00 | 86 | 1013.1 |
| 20260502102921 | 57 | 224 | 0.0 | 0.9 | 0.00 | 0.00 | 0.00 | 85 | 1013.2 |
| 20260502102419 | 58 | 224 | 0.9 | 1.7 | 0.00 | 0.00 | 0.00 | 85 | 1013.2 |
| 20260502102148 | 58 | 224 | 0.0 | 1.7 | 0.00 | 0.00 | 0.00 | 85 | 1013.2 |
| 20260502101419 | 58 | 224 | 0.0 | 0.9 | 0.00 | 0.00 | 0.00 | 85 | 1013.2 |
| 20260502100917 | 58 | 224 | 0.0 | 0.0 | 0.00 | 0.00 | 0.00 | 85 | 1013.3 |
| 20260502100416 | 58 | 224 | 0.0 | 0.0 | 0.00 | 0.00 | 0.00 | 85 | 1013.2 |
| 20260502091413 | 59 | 224 | 0.0 | 0.9 | 0.00 | 0.00 | 0.00 | 84 | 1013.5 |
| 20260502090910 | 59 | 224 | 0.0 | 0.9 | 0.00 | 0.00 | 0.00 | 84 | 1013.5 |
| 20260502090639 | 59 | 224 | 0.9 | 1.7 | 0.00 | 0.00 | 0.00 | 84 | 1013.5 |
| 20260502090142 | 59 | 224 | 0.0 | 1.7 | 0.00 | 0.00 | 0.00 | 84 | 1013.5 |
| 20260502071354 | 61 | 224 | 1.7 | 3.5 | 0.00 | 0.00 | 0.00 | 81 | 1014.2 |
| 20260502070853 | 61 | 224 | 0.9 | 2.6 | 0.00 | 0.00 | 0.00 | 81 | 1014.2 |
| 20260502070354 | 61 | 224 | 0.9 | 2.6 | 0.00 | 0.00 | 0.00 | 81 | 1014.2 |
| 20260502070124 | 61 | 224 | 0.9 | 2.6 | 0.00 | 0.00 | 0.00 | 81 | 1014.4 |
| 20260502065353 | 61 | 224 | 0.9 | 2.6 | 0.00 | 0.00 | 0.00 | 81 | 1014.3 |
| 20260502064852 | 61 | 224 | 0.9 | 2.6 | 0.00 | 0.00 | 0.00 | 80 | 1014.2 |
| 20260502063851 | 62 | 224 | 0.9 | 3.5 | 0.00 | 0.00 | 0.00 | 80 | 1014.2 |
| 20260502063352 | 62 | 224 | 1.7 | 3.5 | 0.00 | 0.00 | 0.00 | 80 | 1014.2 |
| 20260502063122 | 62 | 224 | 1.7 | 4.3 | 0.00 | 0.00 | 0.00 | 80 | 1014.1 |
| 20260502062351 | 62 | 224 | 2.6 | 4.3 | 0.00 | 0.00 | 0.00 | 80 | 1014.0 |
| 20260502061850 | 62 | 224 | 1.7 | 3.5 | 0.00 | 0.00 | 0.00 | 79 | 1014.1 |
| 20260502061350 | 62 | 224 | 1.7 | 3.5 | 0.00 | 0.00 | 0.00 | 79 | 1014.1 |
| 20260502060851 | 62 | 224 | 1.7 | 4.3 | 0.00 | 0.00 | 0.00 | 79 | 1014.1 |
| 20260502060352 | 62 | 224 | 2.6 | 4.3 | 0.00 | 0.00 | 0.00 | 79 | 1014.1 |
| 20260502055852 | 62 | 224 | 2.6 | 4.3 | 0.00 | 0.00 | 0.00 | 79 | 1014.1 |
| 20260502055352 | 62 | 224 | 2.6 | 4.3 | 0.00 | 0.00 | 0.00 | 79 | 1014.2 |
| 20260502055123 | 63 | 224 | 2.6 | 4.3 | 0.00 | 0.00 | 0.00 | 79 | 1014.2 |
| 20260502054352 | 63 | 224 | 2.6 | 4.3 | 0.00 | 0.00 | 0.00 | 79 | 1014.2 |
| 20260502053851 | 63 | 224 | 2.6 | 4.3 | 0.00 | 0.00 | 0.00 | 78 | 1014.2 |
| 20260502053352 | 63 | 224 | 1.7 | 4.3 | 0.00 | 0.00 | 0.00 | 78 | 1014.2 |
| 20260502052851 | 63 | 224 | 2.6 | 3.5 | 0.00 | 0.00 | 0.00 | 78 | 1014.2 |
| 20260502052622 | 63 | 224 | 2.6 | 4.3 | 0.00 | 0.00 | 0.00 | 78 | 1014.2 |
| 20260502052122 | 64 | 224 | 2.6 | 4.3 | 0.00 | 0.00 | 0.00 | 77 | 1014.1 |
| 20260502051350 | 64 | 224 | 2.6 | 4.3 | 0.00 | 0.00 | 0.00 | 77 | 1014.1 |
| 20260502050852 | 64 | 224 | 1.7 | 4.3 | 0.00 | 0.00 | 0.00 | 77 | 1014.0 |
| 20260502050351 | 64 | 224 | 1.7 | 4.3 | 0.00 | 0.00 | 0.00 | 76 | 1014.1 |
| 20260502045350 | 64 | 224 | 1.7 | 4.3 | 0.00 | 0.00 | 0.00 | 77 | 1014.0 |
| 20260502044850 | 64 | 224 | 1.7 | 4.3 | 0.00 | 0.00 | 0.00 | 76 | 1014.0 |
| 20260502044351 | 64 | 224 | 2.6 | 4.3 | 0.00 | 0.00 | 0.00 | 75 | 1013.9 |
| 20260502043850 | 65 | 224 | 1.7 | 5.2 | 0.00 | 0.00 | 0.00 | 75 | 1013.8 |
| 20260502043350 | 65 | 223 | 2.6 | 5.2 | 0.00 | 0.00 | 0.00 | 75 | 1013.8 |
| 20260502042849 | 65 | 223 | 2.6 | 5.2 | 0.00 | 0.00 | 0.00 | 75 | 1013.7 |
| 20260502042348 | 65 | 223 | 3.5 | 7.0 | 0.00 | 0.00 | 0.00 | 74 | 1013.5 |
| 20260502041849 | 65 | 223 | 3.5 | 7.0 | 0.00 | 0.00 | 0.00 | 74 | 1013.5 |
| 20260502041349 | 65 | 223 | 3.5 | 7.0 | 0.00 | 0.00 | 0.00 | 73 | 1013.5 |
| 20260502040846 | 66 | 223 | 3.5 | 7.0 | 0.00 | 0.00 | 0.00 | 73 | 1013.5 |
| 20260502040348 | 66 | 225 | 3.5 | 7.0 | 0.00 | 0.00 | 0.00 | 72 | 1013.4 |
| 20260502040125 | 66 | 223 | 4.3 | 7.0 | 0.00 | 0.00 | 0.00 | 72 | 1013.2 |
| 20260502035346 | 66 | 223 | 4.3 | 7.0 | 0.00 | 0.00 | 0.00 | 72 | 1013.2 |
| 20260502034843 | 66 | 224 | 4.3 | 7.0 | 0.00 | 0.00 | 0.00 | 71 | 1013.1 |
| 20260502034343 | 67 | 225 | 4.3 | 8.7 | 0.00 | 0.00 | 0.00 | 71 | 1013.0 |
| 20260502034112 | 67 | 228 | 4.3 | 8.7 | 0.00 | 0.00 | 0.00 | 70 | 1012.9 |
| 20260502033341 | 67 | 228 | 4.3 | 7.8 | 0.00 | 0.00 | 0.00 | 70 | 1012.9 |
| 20260502032838 | 67 | 229 | 4.3 | 8.7 | 0.00 | 0.00 | 0.00 | 69 | 1012.7 |
| 20260502032340 | 67 | 231 | 4.3 | 8.7 | 0.00 | 0.00 | 0.00 | 69 | 1012.7 |
| 20260502031839 | 67 | 229 | 4.3 | 7.8 | 0.00 | 0.00 | 0.00 | 69 | 1012.6 |
| 20260502031337 | 67 | 227 | 5.2 | 7.8 | 0.00 | 0.00 | 0.00 | 69 | 1012.6 |
| 20260502030837 | 67 | 225 | 5.2 | 7.8 | 0.00 | 0.00 | 0.00 | 68 | 1012.7 |
| 20260502030337 | 68 | 221 | 4.3 | 7.8 | 0.00 | 0.00 | 0.00 | 68 | 1012.6 |
| 20260502025837 | 68 | 222 | 4.3 | 8.7 | 0.00 | 0.00 | 0.00 | 67 | 1012.5 |
| 20260502025607 | 68 | 224 | 4.3 | 8.7 | 0.00 | 0.00 | 0.00 | 67 | 1012.5 |
| 20260502024837 | 69 | 219 | 4.3 | 7.8 | 0.00 | 0.00 | 0.00 | 66 | 1012.3 |
| 20260502024608 | 69 | 225 | 4.3 | 7.0 | 0.00 | 0.00 | 0.00 | 66 | 1012.2 |
| 20260502024103 | 69 | 219 | 4.3 | 7.8 | 0.00 | 0.00 | 0.00 | 65 | 1012.1 |
| 20260502023329 | 69 | 219 | 4.3 | 7.8 | 0.00 | 0.00 | 0.00 | 64 | 1012.0 |
| 20260502022828 | 70 | 223 | 4.3 | 7.8 | 0.00 | 0.00 | 0.00 | 64 | 1011.9 |
| 20260502022328 | 70 | 220 | 4.3 | 7.8 | 0.00 | 0.00 | 0.00 | 63 | 1011.9 |
| 20260502021824 | 70 | 220 | 5.2 | 8.7 | 0.00 | 0.00 | 0.00 | 63 | 1011.9 |
| 20260502021323 | 71 | 221 | 5.2 | 8.7 | 0.00 | 0.00 | 0.00 | 62 | 1011.8 |
| 20260502020822 | 71 | 215 | 4.3 | 7.8 | 0.00 | 0.00 | 0.00 | 61 | 1011.7 |
| 20260502020318 | 71 | 215 | 5.2 | 7.8 | 0.00 | 0.00 | 0.00 | 61 | 1011.7 |
| 20260502020051 | 72 | 213 | 5.2 | 9.6 | 0.00 | 0.00 | 0.00 | 60 | 1011.6 |
| 20260502015316 | 72 | 211 | 5.2 | 11.3 | 0.00 | 0.00 | 0.00 | 59 | 1011.4 |
| 20260502014818 | 73 | 222 | 5.2 | 11.3 | 0.00 | 0.00 | 0.00 | 59 | 1011.3 |
| 20260502014315 | 73 | 209 | 6.1 | 11.3 | 0.00 | 0.00 | 0.00 | 58 | 1011.3 |
| 20260502013812 | 74 | 222 | 6.1 | 11.3 | 0.00 | 0.00 | 0.00 | 58 | 1011.2 |
| 20260502013312 | 74 | 215 | 5.2 | 10.4 | 0.00 | 0.00 | 0.00 | 57 | 1011.1 |
| 20260502012812 | 74 | 217 | 5.2 | 10.4 | 0.00 | 0.00 | 0.00 | 56 | 1011.0 |
| 20260502012311 | 75 | 216 | 5.2 | 9.6 | 0.00 | 0.00 | 0.00 | 55 | 1011.0 |
| 20260502011810 | 75 | 213 | 6.1 | 9.6 | 0.00 | 0.00 | 0.00 | 55 | 1011.0 |
| 20260502011309 | 75 | 222 | 6.1 | 9.6 | 0.00 | 0.00 | 0.00 | 55 | 1011.0 |
| 20260502010810 | 76 | 224 | 6.1 | 10.4 | 0.00 | 0.00 | 0.00 | 55 | 1011.0 |
| 20260502010538 | 76 | 196 | 6.1 | 10.4 | 0.00 | 0.00 | 0.00 | 54 | 1011.1 |
| 20260502005807 | 76 | 233 | 7.0 | 11.3 | 0.00 | 0.00 | 0.00 | 54 | 1011.0 |
| 20260502005306 | 77 | 217 | 7.0 | 11.3 | 0.00 | 0.00 | 0.00 | 52 | 1011.0 |
| 20260502004807 | 77 | 226 | 7.0 | 11.3 | 0.00 | 0.00 | 0.00 | 51 | 1010.9 |
| 20260502004308 | 78 | 218 | 6.1 | 12.2 | 0.00 | 0.00 | 0.00 | 52 | 1010.9 |
| 20260502003807 | 78 | 218 | 7.0 | 12.2 | 0.00 | 0.00 | 0.00 | 51 | 1010.9 |
| 20260502003306 | 78 | 232 | 7.0 | 12.2 | 0.00 | 0.00 | 0.00 | 51 | 1011.0 |
| 20260502002804 | 78 | 221 | 7.8 | 13.9 | 0.00 | 0.00 | 0.00 | 50 | 1010.9 |
| 20260502002305 | 78 | 218 | 7.8 | 13.9 | 0.00 | 0.00 | 0.00 | 49 | 1010.8 |
| 20260502001802 | 79 | 229 | 7.0 | 12.2 | 0.00 | 0.00 | 0.00 | 49 | 1010.8 |
| 20260502001301 | 80 | 217 | 7.0 | 11.3 | 0.00 | 0.00 | 0.00 | 48 | 1010.9 |
| 20260502000801 | 80 | 222 | 6.1 | 11.3 | 0.00 | 0.00 | 0.00 | 48 | 1010.8 |
| 20260502000303 | 81 | 225 | 6.1 | 13.0 | 0.00 | 0.00 | 0.00 | 47 | 1010.8 |
| 20260501235800 | 81 | 208 | 6.1 | 13.0 | 0.00 | 0.00 | 0.00 | 46 | 1010.8 |
| 20260501235300 | 82 | 216 | 6.1 | 11.3 | 0.00 | 0.00 | 0.00 | 45 | 1010.8 |
| 20260501235027 | 82 | 224 | 6.1 | 10.4 | 0.00 | 0.00 | 0.00 | 44 | 1010.7 |
| 20260501234256 | 83 | 240 | 6.1 | 11.3 | 0.00 | 0.00 | 0.00 | 43 | 1010.7 |
| 20260501233757 | 83 | 227 | 6.1 | 11.3 | 0.00 | 0.00 | 0.00 | 43 | 1010.7 |
| 20260501233527 | 82 | 263 | 6.1 | 12.2 | 0.00 | 0.00 | 0.00 | 42 | 1010.7 |
| 20260501233025 | 82 | 265 | 6.1 | 12.2 | 0.00 | 0.00 | 0.00 | 42 | 1010.8 |
| 20260501232253 | 83 | 248 | 7.0 | 11.3 | 0.00 | 0.00 | 0.00 | 43 | 1010.8 |
| 20260501231749 | 82 | 254 | 6.1 | 11.3 | 0.00 | 0.00 | 0.00 | 43 | 1010.7 |
| 20260501231249 | 83 | 214 | 5.2 | 11.3 | 0.00 | 0.00 | 0.00 | 42 | 1010.8 |
| 20260501230750 | 82 | 240 | 5.2 | 9.6 | 0.00 | 0.00 | 0.00 | 42 | 1010.8 |
| 20260501230519 | 82 | 229 | 5.2 | 9.6 | 0.00 | 0.00 | 0.00 | 43 | 1010.9 |
| 20260501225748 | 82 | 269 | 5.2 | 10.4 | 0.00 | 0.00 | 0.00 | 43 | 1011.0 |
| 20260501224747 | 82 | 253 | 5.2 | 11.3 | 0.00 | 0.00 | 0.00 | 44 | 1011.3 |
| 20260501224247 | 81 | 221 | 6.1 | 12.2 | 0.00 | 0.00 | 0.00 | 44 | 1011.4 |
| 20260501223744 | 81 | 238 | 6.1 | 12.2 | 0.00 | 0.00 | 0.00 | 44 | 1011.4 |
| 20260501223243 | 82 | 248 | 6.1 | 11.3 | 0.00 | 0.00 | 0.00 | 46 | 1011.5 |
| 20260501222744 | 81 | 238 | 6.1 | 11.3 | 0.00 | 0.00 | 0.00 | 47 | 1011.6 |
| 20260501222240 | 81 | 222 | 5.2 | 12.2 | 0.00 | 0.00 | 0.00 | 46 | 1011.7 |
| 20260501221740 | 81 | 223 | 5.2 | 12.2 | 0.00 | 0.00 | 0.00 | 47 | 1011.8 |
| 20260501221239 | 81 | 240 | 5.2 | 11.3 | 0.00 | 0.00 | 0.00 | 47 | 1011.8 |
| 20260501220734 | 81 | 229 | 5.2 | 9.6 | 0.00 | 0.00 | 0.00 | 48 | 1011.8 |
| 20260501220235 | 80 | 229 | 5.2 | 9.6 | 0.00 | 0.00 | 0.00 | 48 | 1011.9 |
| 20260501215734 | 80 | 221 | 5.2 | 12.2 | 0.00 | 0.00 | 0.00 | 47 | 1012.0 |
| 20260501215234 | 81 | 259 | 5.2 | 12.2 | 0.00 | 0.00 | 0.00 | 47 | 1012.1 |
| 20260501214734 | 81 | 239 | 6.1 | 10.4 | 0.00 | 0.00 | 0.00 | 47 | 1012.1 |
| 20260501214234 | 81 | 250 | 5.2 | 10.4 | 0.00 | 0.00 | 0.00 | 48 | 1012.2 |
| 20260501213733 | 80 | 224 | 4.3 | 9.6 | 0.00 | 0.00 | 0.00 | 48 | 1012.2 |
| 20260501213233 | 80 | 257 | 5.2 | 9.6 | 0.00 | 0.00 | 0.00 | 49 | 1012.3 |
| 20260501213006 | 79 | 223 | 6.1 | 10.4 | 0.00 | 0.00 | 0.00 | 50 | 1012.5 |
| 20260501212233 | 79 | 228 | 5.2 | 10.4 | 0.00 | 0.00 | 0.00 | 49 | 1012.5 |
| 20260501211730 | 78 | 223 | 4.3 | 9.6 | 0.00 | 0.00 | 0.00 | 49 | 1012.6 |
| 20260501211228 | 78 | 227 | 4.3 | 10.4 | 0.00 | 0.00 | 0.00 | 49 | 1012.7 |
| 20260501210729 | 78 | 245 | 5.2 | 10.4 | 0.00 | 0.00 | 0.00 | 51 | 1012.8 |
| 20260501210224 | 78 | 232 | 4.3 | 10.4 | 0.00 | 0.00 | 0.00 | 51 | 1012.9 |
| 20260501205955 | 78 | 214 | 4.3 | 10.4 | 0.00 | 0.00 | 0.00 | 51 | 1012.8 |
| 20260501205225 | 78 | 225 | 4.3 | 10.4 | 0.00 | 0.00 | 0.00 | 51 | 1012.9 |
| 20260501204954 | 77 | 235 | 4.3 | 9.6 | 0.00 | 0.00 | 0.00 | 52 | 1012.9 |
| 20260501204222 | 77 | 232 | 4.3 | 8.7 | 0.00 | 0.00 | 0.00 | 53 | 1012.9 |